Regional Weather Roundup
Issued by NWS

Home | Current Version | Previous Version | Graphics & Text | Print | Product List | Glossary On
Versions: 1 2 3 4 5 6 7 8 9 10 11 12 13 14 15 16 17 18 19 20 21 22 23 24 25 26 27 28 29 30 31 32 33 34 35 36 37 38 39 40 41 42 43 44 45 46 47 48 49 50
000
ASUS45 KPSR 271910
RWRAZ

ARIZONA REGIONAL HOURLY WEATHER ROUNDUP
NATIONAL WEATHER SERVICE PHOENIX AZ
1200 PM MST SAT DEC 27 2014

NOTE: FAIR INDICATES FEW OR NO CLOUDS BELOW 12,000 FEET WITH NO
SIGNIFICANT WEATHER AND/OR OBSTRUCTIONS TO VISIBILITY.

AZZ001>003-036-272000-
NORTHWEST ARIZONA

CITY           SKY/WX    TMP DP  RH WIND       PRES   REMARKS
BULLHEAD CITY  SUNNY     50  16  25 N23       30.41F
KINGMAN        SUNNY     41   9  26 N12       30.33F
$$

AZZ004>008-015-016-018-272000-
NORTH CENTRAL ARIZONA

CITY           SKY/WX    TMP DP  RH WIND       PRES   REMARKS
GRAND CANYON   SUNNY     29   9  43 NE9       30.26F WCI  20
PRESCOTT       SUNNY     35  12  38 CALM      30.26F
FLAGSTAFF      SUNNY     25  11  55 NE16G24   30.21F WCI  12
PAYSON         SUNNY     37  10  32 NE13G18   30.24F WCI  29
PAGE           SUNNY     35   7  31 CALM      30.34F
$$

AZZ009>014-017-272000-
NORTHEAST ARIZONA

CITY           SKY/WX    TMP DP  RH WIND       PRES   REMARKS
WINSLOW        SUNNY     33  14  45 CALM      30.29F
SAINT JOHNS    SUNNY     31  18  58 NW6       30.24F WCI  25
WINDOW ROCK    SUNNY     28   9  44 NE3       30.21F
SHOW LOW       SUNNY     27  12  54 N8        30.24F WCI  18
$$

AZZ023-272000-
GREATER PHOENIX AREA

CITY           SKY/WX    TMP DP  RH WIND       PRES   REMARKS
PHOENIX        SUNNY     53  21  28 CALM      30.27F
BUCKEYE          N/A     50  18  27 CALM      30.30F
GLENDALE       SUNNY     54  21  28 CALM      30.30F
LUKE AFB       SUNNY     54  17  23 NE6       30.28F
DEER VALLEY    SUNNY     53  15  22 NW3       30.26F
SCOTTSDALE     SUNNY     53  19  26 CALM      30.27F
MESA-FALCON    SUNNY     50  18  27 N9        30.26
MESA-GATEWAY   SUNNY     48  25  40 CALM      30.28F
CHANDLER       SUNNY     52  19  28 CALM      30.28F
$$

AZZ027-028-272000-
SOUTHWEST MARICOPA COUNTY AND PINAL COUNTY

CITY           SKY/WX    TMP DP  RH WIND       PRES   REMARKS
CASA GRANDE    SUNNY     48  21  34 CALM      30.27F
GILA BEND      FAIR      50  19  29 NE5       30.31F
$$

AZZ503-504-507>509-272000-
SOUTHEAST ARIZONA

CITY           SKY/WX    TMP DP  RH WIND       PRES   REMARKS
TUCSON         SUNNY     39  23  52 CALM      30.25F
DAVIS-MONTHAN  SUNNY     44  19  36 VRB1      30.22F
RYAN FIELD       N/A     48  27  43 W3        30.26F
NOGALES        SUNNY     48  11  22 N12       30.17F
SIERRA VISTA   SUNNY     41  12  30 E9        30.18F
DOUGLAS        SUNNY     44  15  31 VRB6      30.18F
SAFFORD        SUNNY     42  17  36 VRB3      30.24F
$$

AZZ020-021-025-026-031-272000-
SOUTHWEST ARIZONA

CITY           SKY/WX    TMP DP  RH WIND       PRES   REMARKS
YUMA           SUNNY    N/A N/A N/A N14G23    30.35S
$$

CAZ031-033-041-043-047-048-061-272000-
SOUTHERN CALIFORNIA

CITY           SKY/WX    TMP DP  RH WIND       PRES   REMARKS
DOWNTOWN L.A.  SUNNY     59  18  20 CALM      30.32F
L.A. AIRPORT   MOSUNNY   58  19  22 NW3       30.34F
SAN DIEGO      MOSUNNY   57  20  23 CALM      30.34S
BURBANK        SUNNY     56  17  21 CALM      30.32F
ONTARIO        MOSUNNY   58  14  17 W9        30.31S
RIVERSIDE      SUNNY     56   6  13 N18G30    30.31F
PALM SPRINGS   SUNNY     56   7  14 S6        30.42F
EL CENTRO NAS  MOSUNNY   58  13  17 N21G29    30.40S
IMPERIAL       SUNNY     58  13  17 N17       30.39F
BLYTHE         SUNNY     55  12  18 N14       30.37S
NEEDLES        SUNNY     53  11  18 N23G30    30.39F
$$

NVZ020-UTZ003-272000-
SOUTHERN NEVADA-UTAH

CITY           SKY/WX    TMP DP  RH WIND       PRES   REMARKS
LAS VEGAS      MOSUNNY   46   8  21 N13G21    30.38F
SALT LAKE CITY MOSUNNY   27  16  63 SE10      30.35F WCI  17
$$

NMZ009-TXZ055-272000-
NEW MEXICO-WEST TEXAS

CITY           SKY/WX    TMP DP  RH WIND       PRES   REMARKS
ALBUQUERQUE    MOSUNNY   33  15  47 N10       30.23F WCI  25
EL PASO        CLOUDY    41  33  73 N3        30.20F
$$


........................KEY........................
SKY/WX - SKY CONDITION/WEATHER
TMP    - TEMPERATURE IN FAHRENHEIT
DP     - DEW POINT IN FAHRENHEIT
RH     - RELATIVE HUMIDITY IN PERCENT
WIND   - DIRECTION AND SPEED IN MILES PER HOUR (MPH)
VRB    - VARIABLE WIND DIRECTION
PRES   - MEAN SEA LEVEL PRESSURE IN INCHES OF MERCURY
         F - FALLING PRESSURE   R - RISING PRESSURE
         S - STEADY PRESSURE
VSB    - VISIBILITY IN MILES
HX     - HEAT INDEX IN FAHRENHEIT
WCI    - WIND CHILL INDEX IN FAHRENHEIT
TC     - TEMPERATURE IN CELSIUS WHICH IS ALSO KNOWN AS
         TEMPERATURE IN CENTIGRADE
AFB    - AIR FORCE BASE
         LUKE AFB IS LUKE AIR FORCE BASE
         DAVIS-MONTHAN IS DAVIS-MONTHAN AIR FORCE BASE
NAS    - NAVAL AIR STATION
         EL CENTRO NAS IS EL CENTRO NAVAL AIR STATION
N/A    - NOT AVAILABLE


USA.gov is the U.S. government's official web portal to all federal, state and local government web resources and services.